Tracking 27405 objects as of 1-Jun-2023
HD Live streaming from Space Station
objects crossing your sky now

STARLINK-4559

Track STARLINK-4559 now!
10-day predictions
STARLINK-4559 is classified as:


NORAD ID: 53574
Int'l Code: 2022-101AZ
Perigee: 546.4 km
Apogee: 547.4 km
Inclination: 53.2 °
Period: 95.4 minutes
Semi major axis: 6917 km
RCS: Unknown
Launch date: August 19, 2022
Source: United States (US)
Launch site: AIR FORCE EASTERN TEST RANGE (AFETR)
Your satellite tracking list
Your tracking list is empty




NASA's NSSDC Master Catalog

Two Line Element Set (TLE):
1 53574U 22101AZ  23151.57689438  .00001871  00000-0  13558-3 0  9994
2 53574  53.2172 281.8711 0000721  99.2709 260.8365 15.08836336 43505
Source of the keplerian elements: AFSPC